Time,TemperatureF,DewpointF,PressureIn,WindDirection,WindDirectionDegrees,WindSpeedMPH,WindSpeedGustMPH,Humidity,HourlyPrecipIn,Conditions,Clouds,dailyrainin,SolarRadiationWatts/m^2,SoftwareType,DateUTC
2013-05-19 00:21:00,32.0,31.0,-100.00,WNW,293,3.0,7.0,95,0.00,,,0.05,0.000000,,2013-05-19 06:21:00,
2013-05-19 00:32:00,32.0,31.0,-100.00,WNW,293,3.0,7.0,95,0.00,,,0.05,0.000000,,2013-05-19 06:32:00,
2013-05-19 00:42:00,32.0,31.0,-100.00,WNW,293,3.0,7.0,95,0.00,,,0.05,0.000000,,2013-05-19 06:42:00,
2013-05-19 00:52:00,32.0,31.0,-100.00,WNW,293,3.0,7.0,95,0.00,,,0.05,0.000000,,2013-05-19 06:52:00,
2013-05-19 01:21:00,32.0,31.0,-100.00,SSE,159,2.0,5.0,96,0.00,,,0.05,0.000000,,2013-05-19 07:21:00,
2013-05-19 01:32:00,32.0,31.0,-100.00,SSE,159,2.0,5.0,96,0.00,,,0.05,0.000000,,2013-05-19 07:32:00,
2013-05-19 01:42:00,32.0,31.0,-100.00,SSE,159,2.0,5.0,96,0.00,,,0.05,0.000000,,2013-05-19 07:42:00,
2013-05-19 01:52:00,32.0,31.0,-100.00,SSE,159,2.0,5.0,96,0.00,,,0.05,0.000000,,2013-05-19 07:52:00,
2013-05-19 02:22:00,31.0,30.0,-100.00,NW,314,3.0,14.0,96,0.00,,,0.05,0.000000,,2013-05-19 08:22:00,
2013-05-19 02:32:00,31.0,30.0,-100.00,NW,314,3.0,14.0,96,0.00,,,0.05,0.000000,,2013-05-19 08:32:00,
2013-05-19 02:42:00,31.0,30.0,-100.00,NW,314,3.0,14.0,96,0.00,,,0.05,0.000000,,2013-05-19 08:42:00,
2013-05-19 02:52:00,31.0,30.0,-100.00,NW,314,3.0,14.0,96,0.00,,,0.05,0.000000,,2013-05-19 08:52:00,
2013-05-19 03:21:00,31.0,30.0,-100.00,NW,305,1.0,7.0,96,0.00,,,0.05,0.000000,,2013-05-19 09:21:00,
2013-05-19 03:32:00,31.0,30.0,-100.00,NW,305,1.0,7.0,96,0.00,,,0.05,0.000000,,2013-05-19 09:32:00,
2013-05-19 03:43:00,31.0,30.0,-100.00,NW,305,1.0,7.0,96,0.00,,,0.05,0.000000,,2013-05-19 09:43:00,
2013-05-19 03:53:00,31.0,30.0,-100.00,NW,305,1.0,7.0,96,0.00,,,0.05,0.000000,,2013-05-19 09:53:00,
2013-05-19 04:23:00,31.0,30.0,-100.00,NW,315,2.0,4.0,96,0.00,,,0.05,0.000000,,2013-05-19 10:23:00,
2013-05-19 04:33:00,31.0,30.0,-100.00,NW,315,2.0,4.0,96,0.00,,,0.05,0.000000,,2013-05-19 10:33:00,
2013-05-19 04:42:00,31.0,30.0,-100.00,NW,315,2.0,4.0,96,0.00,,,0.05,0.000000,,2013-05-19 10:42:00,
2013-05-19 04:52:00,31.0,30.0,-100.00,NW,315,2.0,4.0,96,0.00,,,0.05,0.000000,,2013-05-19 10:52:00,
2013-05-19 05:21:00,31.0,30.0,-100.00,North,352,2.0,5.0,96,0.00,,,0.05,0.000000,,2013-05-19 11:21:00,
2013-05-19 05:32:00,31.0,30.0,-100.00,North,352,2.0,5.0,96,0.00,,,0.05,0.000000,,2013-05-19 11:32:00,
2013-05-19 05:42:00,31.0,30.0,-100.00,North,352,2.0,5.0,96,0.00,,,0.05,0.000000,,2013-05-19 11:42:00,
2013-05-19 05:52:00,31.0,30.0,-100.00,North,352,2.0,5.0,96,0.00,,,0.05,0.000000,,2013-05-19 11:52:00,
2013-05-19 06:22:00,31.0,30.0,-100.00,NNW,348,2.0,5.0,95,0.00,,,0.05,0.000000,,2013-05-19 12:22:00,
2013-05-19 06:32:00,31.0,30.0,-100.00,NNW,348,2.0,5.0,95,0.00,,,0.05,0.000000,,2013-05-19 12:32:00,
2013-05-19 06:42:00,31.0,30.0,-100.00,NNW,348,2.0,5.0,95,0.00,,,0.05,0.000000,,2013-05-19 12:42:00,
2013-05-19 06:52:00,31.0,30.0,-100.00,NNW,348,2.0,5.0,95,0.00,,,0.05,0.000000,,2013-05-19 12:52:00,
2013-05-19 07:21:00,32.0,30.0,-100.00,NNW,327,2.0,5.0,94,0.00,,,0.05,7.000000,,2013-05-19 13:21:00,
2013-05-19 07:32:00,32.0,30.0,-100.00,NNW,327,2.0,5.0,94,0.00,,,0.05,7.000000,,2013-05-19 13:32:00,
2013-05-19 07:42:00,32.0,30.0,-100.00,NNW,327,2.0,5.0,94,0.00,,,0.05,7.000000,,2013-05-19 13:42:00,
2013-05-19 07:52:00,32.0,30.0,-100.00,NNW,327,2.0,5.0,94,0.00,,,0.05,7.000000,,2013-05-19 13:52:00,
2013-05-19 08:21:00,34.0,31.0,-100.00,NNW,342,2.0,6.0,90,0.00,,,0.05,29.000000,,2013-05-19 14:21:00,
2013-05-19 08:32:00,34.0,31.0,-100.00,NNW,342,2.0,6.0,90,0.00,,,0.05,29.000000,,2013-05-19 14:32:00,
2013-05-19 08:42:00,34.0,31.0,-100.00,NNW,342,2.0,6.0,90,0.00,,,0.05,29.000000,,2013-05-19 14:42:00,
2013-05-19 08:51:00,34.0,31.0,-100.00,NNW,342,2.0,6.0,90,0.00,,,0.05,29.000000,,2013-05-19 14:51:00,
2013-05-19 09:22:00,33.0,30.0,-100.00,WNW,300,3.0,11.0,88,0.00,,,0.05,28.000000,,2013-05-19 15:22:00,
2013-05-19 09:33:00,33.0,30.0,-100.00,WNW,300,3.0,11.0,88,0.00,,,0.05,28.000000,,2013-05-19 15:33:00,
2013-05-19 09:43:00,33.0,30.0,-100.00,WNW,300,3.0,11.0,88,0.00,,,0.05,28.000000,,2013-05-19 15:43:00,
2013-05-19 09:53:00,33.0,30.0,-100.00,WNW,300,3.0,11.0,88,0.00,,,0.05,28.000000,,2013-05-19 15:53:00,
2013-05-19 10:23:00,37.0,31.0,-100.00,WNW,302,5.0,10.0,80,-99.99,,,0.14,339.000000,,2013-05-19 16:23:00,
2013-05-19 10:32:00,37.0,31.0,-100.00,WNW,302,5.0,10.0,80,-99.99,,,0.14,339.000000,,2013-05-19 16:32:00,
2013-05-19 10:42:00,37.0,31.0,-100.00,WNW,302,5.0,10.0,80,-99.99,,,0.14,339.000000,,2013-05-19 16:42:00,
2013-05-19 10:52:00,37.0,31.0,-100.00,WNW,302,5.0,10.0,80,-99.99,,,0.14,339.000000,,2013-05-19 16:52:00,
2013-05-19 11:22:00,39.0,31.0,-100.00,WNW,286,7.0,12.0,73,0.12,,,0.26,629.000000,,2013-05-19 17:22:00,
2013-05-19 11:32:00,39.0,31.0,-100.00,WNW,286,7.0,12.0,73,0.12,,,0.26,629.000000,,2013-05-19 17:32:00,
2013-05-19 11:42:00,39.0,31.0,-100.00,WNW,286,7.0,12.0,73,0.12,,,0.26,629.000000,,2013-05-19 17:42:00,
2013-05-19 11:52:00,39.0,31.0,-100.00,WNW,286,7.0,12.0,73,0.12,,,0.26,629.000000,,2013-05-19 17:52:00,
2013-05-19 12:22:00,41.0,30.0,-100.00,WNW,295,9.0,18.0,64,0.00,,,0.26,846.000000,,2013-05-19 18:22:00,
2013-05-19 12:32:00,41.0,30.0,-100.00,WNW,295,9.0,18.0,64,0.00,,,0.26,846.000000,,2013-05-19 18:32:00,
2013-05-19 12:42:00,41.0,30.0,-100.00,WNW,295,9.0,18.0,64,0.00,,,0.26,846.000000,,2013-05-19 18:42:00,
2013-05-19 12:52:00,41.0,30.0,-100.00,WNW,295,9.0,18.0,64,0.00,,,0.26,846.000000,,2013-05-19 18:52:00,
2013-05-19 13:22:00,41.0,31.0,-100.00,WNW,292,8.0,19.0,68,0.00,,,0.26,695.000000,,2013-05-19 19:22:00,
2013-05-19 13:32:00,41.0,31.0,-100.00,WNW,292,8.0,19.0,68,0.00,,,0.26,695.000000,,2013-05-19 19:32:00,
2013-05-19 13:42:00,41.0,31.0,-100.00,WNW,292,8.0,19.0,68,0.00,,,0.26,695.000000,,2013-05-19 19:42:00,
2013-05-19 13:52:00,41.0,31.0,-100.00,WNW,292,8.0,19.0,68,0.00,,,0.26,695.000000,,2013-05-19 19:52:00,
2013-05-19 14:21:00,35.0,31.0,-100.00,WNW,290,9.0,21.0,84,0.01,,,0.27,503.000000,,2013-05-19 20:21:00,
2013-05-19 15:22:00,40.0,32.0,-100.00,NW,317,6.0,13.0,73,-99.99,,,0.28,591.000000,,2013-05-19 21:22:00,
2013-05-19 15:32:00,40.0,32.0,-100.00,NW,317,6.0,13.0,73,-99.99,,,0.28,591.000000,,2013-05-19 21:32:00,
2013-05-19 15:43:00,40.0,32.0,-100.00,NW,317,6.0,13.0,73,-99.99,,,0.28,591.000000,,2013-05-19 21:43:00,
2013-05-19 15:53:00,40.0,32.0,-100.00,NW,317,6.0,13.0,73,-99.99,,,0.28,591.000000,,2013-05-19 21:53:00,
2013-05-19 16:23:00,44.0,26.0,-100.00,WNW,296,8.0,16.0,49,0.00,,,0.28,865.000000,,2013-05-19 22:23:00,
2013-05-19 16:33:00,44.0,26.0,-100.00,WNW,296,8.0,16.0,49,0.00,,,0.28,865.000000,,2013-05-19 22:33:00,
2013-05-19 16:42:00,44.0,26.0,-100.00,WNW,296,8.0,16.0,49,0.00,,,0.28,865.000000,,2013-05-19 22:42:00,
2013-05-19 16:52:00,44.0,26.0,-100.00,WNW,296,8.0,16.0,49,0.00,,,0.28,865.000000,,2013-05-19 22:52:00,
2013-05-19 17:22:00,43.0,30.0,-100.00,WNW,283,7.0,16.0,60,0.01,,,0.29,443.000000,,2013-05-19 23:22:00,
2013-05-19 17:32:00,43.0,30.0,-100.00,WNW,283,7.0,16.0,60,0.01,,,0.29,443.000000,,2013-05-19 23:32:00,
2013-05-19 17:42:00,43.0,30.0,-100.00,WNW,283,7.0,16.0,60,0.01,,,0.29,443.000000,,2013-05-19 23:42:00,
2013-05-19 17:52:00,43.0,30.0,-100.00,WNW,283,7.0,16.0,60,0.01,,,0.29,443.000000,,2013-05-19 23:52:00,
2013-05-19 18:22:00,42.0,27.0,-100.00,NW,319,5.0,13.0,56,0.00,,,0.29,408.000000,,2013-05-20 00:22:00,
2013-05-19 18:32:00,42.0,27.0,-100.00,NW,319,5.0,13.0,56,0.00,,,0.29,408.000000,,2013-05-20 00:32:00,
2013-05-19 18:42:00,42.0,27.0,-100.00,NW,319,5.0,13.0,56,0.00,,,0.29,408.000000,,2013-05-20 00:42:00,
2013-05-19 18:52:00,42.0,27.0,-100.00,NW,319,5.0,13.0,56,0.00,,,0.29,408.000000,,2013-05-20 00:52:00,
2013-05-19 19:21:00,38.0,29.0,-100.00,WNW,296,4.0,18.0,70,0.00,,,0.28,165.000000,,2013-05-20 01:21:00,
2013-05-19 19:31:00,38.0,29.0,-100.00,WNW,296,4.0,18.0,70,0.00,,,0.28,165.000000,,2013-05-20 01:31:00,
2013-05-19 19:42:00,38.0,29.0,-100.00,WNW,296,4.0,18.0,70,0.00,,,0.28,165.000000,,2013-05-20 01:42:00,
2013-05-19 19:52:00,38.0,29.0,-100.00,WNW,296,4.0,18.0,70,0.00,,,0.28,165.000000,,2013-05-20 01:52:00,
2013-05-19 20:21:00,35.0,28.0,-100.00,SSE,151,2.0,8.0,74,0.00,,,0.24,58.000000,,2013-05-20 02:21:00,
2013-05-19 20:31:00,35.0,28.0,-100.00,SSE,151,2.0,8.0,74,0.00,,,0.24,58.000000,,2013-05-20 02:31:00,
2013-05-19 20:42:00,35.0,28.0,-100.00,SSE,151,2.0,8.0,74,0.00,,,0.24,58.000000,,2013-05-20 02:42:00,
2013-05-19 20:51:00,35.0,28.0,-100.00,SSE,151,2.0,8.0,74,0.00,,,0.24,58.000000,,2013-05-20 02:51:00,
2013-05-19 21:21:00,33.0,27.0,-100.00,ENE,67,3.0,5.0,78,0.00,,,0.24,2.000000,,2013-05-20 03:21:00,
2013-05-19 21:33:00,33.0,27.0,-100.00,ENE,67,3.0,5.0,78,0.00,,,0.24,2.000000,,2013-05-20 03:33:00,
2013-05-19 21:43:00,33.0,27.0,-100.00,ENE,67,3.0,5.0,78,0.00,,,0.24,2.000000,,2013-05-20 03:43:00,
2013-05-19 21:52:00,33.0,27.0,-100.00,ENE,67,3.0,5.0,78,0.00,,,0.24,2.000000,,2013-05-20 03:52:00,
2013-05-19 22:23:00,33.0,28.0,-100.00,SE,143,2.0,5.0,80,0.00,,,0.24,0.000000,,2013-05-20 04:23:00,
2013-05-19 22:33:00,33.0,28.0,-100.00,SE,143,2.0,5.0,80,0.00,,,0.24,0.000000,,2013-05-20 04:33:00,
2013-05-19 22:42:00,33.0,28.0,-100.00,SE,143,2.0,5.0,80,0.00,,,0.24,0.000000,,2013-05-20 04:42:00,
2013-05-19 22:52:00,33.0,28.0,-100.00,SE,143,2.0,5.0,80,0.00,,,0.24,0.000000,,2013-05-20 04:52:00,
2013-05-19 23:22:00,31.0,28.0,-100.00,ESE,110,1.0,7.0,89,0.00,,,0.24,0.000000,,2013-05-20 05:22:00,
2013-05-19 23:32:00,31.0,28.0,-100.00,ESE,110,1.0,7.0,89,0.00,,,0.24,0.000000,,2013-05-20 05:32:00,
2013-05-19 23:42:00,31.0,28.0,-100.00,ESE,110,1.0,7.0,89,0.00,,,0.24,0.000000,,2013-05-20 05:42:00,
2013-05-19 23:51:00,31.0,28.0,-100.00,ESE,110,1.0,7.0,89,0.00,,,0.24,0.000000,,2013-05-20 05:51:00,